Year,Month,Day,Hour,Minute,Value (Times are PST for temperature in C)
2016,12,09,07,14,0.40
2016,12,09,07,15,0.40
2016,12,09,07,16,0.40
2016,12,09,07,17,0.40
2016,12,09,07,18,0.40
2016,12,09,07,19,0.40
2016,12,09,07,20,0.40
2016,12,09,07,21,0.40
2016,12,09,07,22,0.40
2016,12,09,07,23,0.40
2016,12,09,07,24,0.50
2016,12,09,07,25,0.50
2016,12,09,07,26,0.50
2016,12,09,07,27,0.50
2016,12,09,07,28,0.50
2016,12,09,07,29,0.50
2016,12,09,07,30,0.40
2016,12,09,07,31,0.40
2016,12,09,07,32,0.40
2016,12,09,07,33,0.40
2016,12,09,07,34,0.40
2016,12,09,07,35,0.40
2016,12,09,07,36,0.40
2016,12,09,07,37,0.40
2016,12,09,07,38,0.40
2016,12,09,07,39,0.50
2016,12,09,07,40,0.50
2016,12,09,07,41,0.50
2016,12,09,07,42,0.50
2016,12,09,07,43,0.50
2016,12,09,07,44,0.50
2016,12,09,07,45,0.50
2016,12,09,07,46,0.60
2016,12,09,07,47,0.60
2016,12,09,07,48,0.60
2016,12,09,07,49,0.60
2016,12,09,07,50,0.60
2016,12,09,07,51,0.60
2016,12,09,07,52,0.60
2016,12,09,07,53,0.60
2016,12,09,07,54,0.50
2016,12,09,07,55,0.50
2016,12,09,07,56,0.50
2016,12,09,07,57,0.50
2016,12,09,07,58,0.60
2016,12,09,07,59,0.60
2016,12,09,08,00,0.60
2016,12,09,08,01,0.60
2016,12,09,08,02,0.60
2016,12,09,08,03,0.60
2016,12,09,08,04,0.60
2016,12,09,08,05,0.60
2016,12,09,08,06,0.60
2016,12,09,08,07,0.60
2016,12,09,08,08,0.60
2016,12,09,08,09,0.60
2016,12,09,08,10,0.60
2016,12,09,08,11,0.70
2016,12,09,08,12,0.70
2016,12,09,08,13,0.70
2016,12,09,08,14,0.70
2016,12,09,08,15,0.70
2016,12,09,08,16,0.70
2016,12,09,08,17,0.70
2016,12,09,08,18,0.70
2016,12,09,08,19,0.70
2016,12,09,08,20,0.70
2016,12,09,08,21,0.70
2016,12,09,08,22,0.70
2016,12,09,08,23,0.70
2016,12,09,08,24,0.70
2016,12,09,08,25,0.70
2016,12,09,08,26,0.70
2016,12,09,08,27,0.70
2016,12,09,08,28,0.70
2016,12,09,08,29,0.70
2016,12,09,08,30,0.70
2016,12,09,08,31,0.70
2016,12,09,08,32,0.70
2016,12,09,08,33,0.60
2016,12,09,08,34,0.70
2016,12,09,08,35,0.70
2016,12,09,08,36,0.70
2016,12,09,08,37,0.70
2016,12,09,08,38,0.70
2016,12,09,08,39,0.70
2016,12,09,08,40,0.70
2016,12,09,08,41,0.70
2016,12,09,08,42,0.70
2016,12,09,08,43,0.70
2016,12,09,08,44,0.70
2016,12,09,08,45,0.70
2016,12,09,08,46,0.70
2016,12,09,08,47,0.70
2016,12,09,08,48,0.70
2016,12,09,08,49,0.70
2016,12,09,08,50,0.80
2016,12,09,08,51,0.80
2016,12,09,08,52,0.80
2016,12,09,08,53,0.80
2016,12,09,08,54,0.70
2016,12,09,08,55,0.70
2016,12,09,08,56,0.70
2016,12,09,08,57,0.70
2016,12,09,08,58,0.70
2016,12,09,08,59,0.70
2016,12,09,09,00,0.70
2016,12,09,09,01,0.70
2016,12,09,09,02,0.70
2016,12,09,09,03,0.80
2016,12,09,09,04,0.80
2016,12,09,09,05,0.80
2016,12,09,09,06,0.80
2016,12,09,09,07,0.80
2016,12,09,09,08,0.90
2016,12,09,09,09,1.00
2016,12,09,09,10,1.00
2016,12,09,09,11,1.00
2016,12,09,09,12,1.00
2016,12,09,09,13,1.00
2016,12,09,09,14,0.90
2016,12,09,09,15,0.90
2016,12,09,09,16,0.90
2016,12,09,09,17,0.90
2016,12,09,09,18,0.90
2016,12,09,09,19,0.90
2016,12,09,09,20,0.90
2016,12,09,09,21,0.90
2016,12,09,09,22,0.90
2016,12,09,09,23,0.90
2016,12,09,09,24,0.90
2016,12,09,09,25,0.80
2016,12,09,09,26,0.80
2016,12,09,09,27,0.80
2016,12,09,09,28,0.80
2016,12,09,09,29,0.80
2016,12,09,09,30,0.80
2016,12,09,09,31,0.80
2016,12,09,09,32,0.80
2016,12,09,09,33,0.80
2016,12,09,09,34,0.90
2016,12,09,09,35,0.90
2016,12,09,09,36,0.90
2016,12,09,09,37,0.90
2016,12,09,09,38,0.90
2016,12,09,09,39,0.90
2016,12,09,09,40,1.00
2016,12,09,09,41,1.00
2016,12,09,09,42,1.00
2016,12,09,09,43,1.00
2016,12,09,09,44,1.00
2016,12,09,09,45,1.10
2016,12,09,09,46,1.10
2016,12,09,09,47,1.10
2016,12,09,09,48,1.10
2016,12,09,09,49,1.10
2016,12,09,09,50,1.20
2016,12,09,09,51,1.20
2016,12,09,09,52,1.20
2016,12,09,09,53,1.20
2016,12,09,09,54,1.20
2016,12,09,09,55,1.20
2016,12,09,09,56,1.20
2016,12,09,09,57,1.20
2016,12,09,09,58,1.20
2016,12,09,09,59,1.20
2016,12,09,10,00,1.20
2016,12,09,10,01,1.20
2016,12,09,10,02,1.10
2016,12,09,10,03,1.10
2016,12,09,10,04,1.10
2016,12,09,10,05,1.10
2016,12,09,10,06,1.00
2016,12,09,10,07,1.00
2016,12,09,10,08,1.00
2016,12,09,10,09,1.00
2016,12,09,10,10,1.00
2016,12,09,10,11,1.00
2016,12,09,10,12,1.00
2016,12,09,10,13,1.00
2016,12,09,10,14,1.00
2016,12,09,10,15,1.00
2016,12,09,10,16,1.10
2016,12,09,10,17,1.10
2016,12,09,10,18,1.10
2016,12,09,10,19,1.10
2016,12,09,10,20,1.10
2016,12,09,10,21,1.10
2016,12,09,10,22,1.10
2016,12,09,10,23,1.10
2016,12,09,10,24,1.20
2016,12,09,10,25,1.20
2016,12,09,10,26,1.20
2016,12,09,10,27,1.30
2016,12,09,10,28,1.30
2016,12,09,10,29,1.30
2016,12,09,10,30,1.30
2016,12,09,10,31,1.40
2016,12,09,10,32,1.40
2016,12,09,10,33,1.30
2016,12,09,10,34,1.30
2016,12,09,10,35,1.20
2016,12,09,10,36,1.20
2016,12,09,10,37,1.10
2016,12,09,10,38,1.10
2016,12,09,10,39,1.10
2016,12,09,10,40,1.10
2016,12,09,10,41,1.00
2016,12,09,10,42,1.00
2016,12,09,10,43,1.00
2016,12,09,10,44,1.00
2016,12,09,10,45,1.00
2016,12,09,10,46,1.00
2016,12,09,10,47,1.00
2016,12,09,10,48,1.10
2016,12,09,10,49,1.10
2016,12,09,10,50,1.00
2016,12,09,10,51,1.10
2016,12,09,10,52,1.10
2016,12,09,10,53,1.10
2016,12,09,10,54,1.10
2016,12,09,10,55,1.10
2016,12,09,10,56,1.10
2016,12,09,10,57,1.10
2016,12,09,10,58,1.10
2016,12,09,10,59,1.10
2016,12,09,11,00,1.10
2016,12,09,11,01,1.10
2016,12,09,11,02,1.10
2016,12,09,11,03,1.10
2016,12,09,11,04,1.10
2016,12,09,11,05,1.10
2016,12,09,11,06,1.10
2016,12,09,11,07,1.10
2016,12,09,11,08,1.10
2016,12,09,11,09,1.10
2016,12,09,11,10,1.10
2016,12,09,11,11,1.10
2016,12,09,11,12,1.10
2016,12,09,11,13,1.10
2016,12,09,11,14,1.10
2016,12,09,11,15,1.00
2016,12,09,11,16,1.00
2016,12,09,11,17,1.00
2016,12,09,11,18,0.90
2016,12,09,11,19,0.90
2016,12,09,11,20,0.90
2016,12,09,11,21,0.90
2016,12,09,11,22,0.90
2016,12,09,11,23,0.90
2016,12,09,11,24,0.90
2016,12,09,11,25,0.90
2016,12,09,11,26,0.90
2016,12,09,11,27,0.90
2016,12,09,11,28,1.00
2016,12,09,11,29,1.00
2016,12,09,11,30,1.00
2016,12,09,11,31,1.00
2016,12,09,11,32,1.00
2016,12,09,11,33,1.00
2016,12,09,11,34,1.00
2016,12,09,11,35,1.00
2016,12,09,11,36,1.10
2016,12,09,11,37,1.10
2016,12,09,11,38,1.10
2016,12,09,11,39,1.10
2016,12,09,11,40,1.10
2016,12,09,11,41,1.10
2016,12,09,11,42,1.20
2016,12,09,11,43,1.20
2016,12,09,11,44,1.20
2016,12,09,11,45,1.20
2016,12,09,11,46,1.20
2016,12,09,11,47,1.30
2016,12,09,11,48,1.30
2016,12,09,11,49,1.30
2016,12,09,11,50,1.30
2016,12,09,11,51,1.30
2016,12,09,11,52,1.30
2016,12,09,11,53,1.40
2016,12,09,11,54,1.40
2016,12,09,11,55,1.40
2016,12,09,11,56,1.50
2016,12,09,11,57,1.50
2016,12,09,11,58,1.50
2016,12,09,11,59,1.50
2016,12,09,12,00,1.50
2016,12,09,12,01,1.50
2016,12,09,12,02,1.50
2016,12,09,12,03,1.50
2016,12,09,12,04,1.40
2016,12,09,12,05,1.40
2016,12,09,12,06,1.40
2016,12,09,12,07,1.40
2016,12,09,12,08,1.40
2016,12,09,12,09,1.40
2016,12,09,12,10,1.40
2016,12,09,12,11,1.40
2016,12,09,12,12,1.40
2016,12,09,12,13,1.40
2016,12,09,12,14,1.40
2016,12,09,12,15,1.40
2016,12,09,12,16,1.40
2016,12,09,12,17,1.40
2016,12,09,12,18,1.40
2016,12,09,12,19,1.40
2016,12,09,12,20,1.40
2016,12,09,12,21,1.40
2016,12,09,12,22,1.30
2016,12,09,12,23,1.30
2016,12,09,12,24,1.30
2016,12,09,12,25,1.30
2016,12,09,12,26,1.30
2016,12,09,12,27,1.30
2016,12,09,12,28,1.30
2016,12,09,12,29,1.30
2016,12,09,12,30,1.30
2016,12,09,12,31,1.30
2016,12,09,12,32,1.30
2016,12,09,12,33,1.30
2016,12,09,12,34,1.30
2016,12,09,12,35,1.30
2016,12,09,12,36,1.30
2016,12,09,12,37,1.30
2016,12,09,12,38,1.30
2016,12,09,12,39,1.30
2016,12,09,12,40,1.30
2016,12,09,12,41,1.30
2016,12,09,12,42,1.30
2016,12,09,12,43,1.30
2016,12,09,12,44,1.30
2016,12,09,12,45,1.30
2016,12,09,12,46,1.30
2016,12,09,12,47,1.30
2016,12,09,12,48,1.40
2016,12,09,12,49,1.40
2016,12,09,12,50,1.40
2016,12,09,12,51,1.40
2016,12,09,12,52,1.40
2016,12,09,12,53,1.50
2016,12,09,12,54,1.50
2016,12,09,12,55,1.50
2016,12,09,12,56,1.50
2016,12,09,12,57,1.50
2016,12,09,12,58,1.50
2016,12,09,12,59,1.50
2016,12,09,13,00,1.50
2016,12,09,13,01,1.50
2016,12,09,13,02,1.40
2016,12,09,13,03,1.50
2016,12,09,13,04,1.50
2016,12,09,13,05,1.50
2016,12,09,13,06,1.50
2016,12,09,13,07,1.50
2016,12,09,13,08,1.50
2016,12,09,13,09,1.60
2016,12,09,13,10,1.60
2016,12,09,13,11,1.60
2016,12,09,13,12,1.60
2016,12,09,13,13,1.60
2016,12,09,13,14,1.60
2016,12,09,13,15,1.60
2016,12,09,13,16,1.60
2016,12,09,13,17,1.60
2016,12,09,13,18,1.60
2016,12,09,13,19,1.60
2016,12,09,13,20,1.70
2016,12,09,13,21,1.70
2016,12,09,13,22,1.70
2016,12,09,13,23,1.70
2016,12,09,13,24,1.70
2016,12,09,13,25,1.70
2016,12,09,13,26,1.60
2016,12,09,13,27,1.60
2016,12,09,13,28,1.60
2016,12,09,13,29,1.60
2016,12,09,13,30,1.60
2016,12,09,13,31,1.60
2016,12,09,13,32,1.60
2016,12,09,13,33,1.60
2016,12,09,13,34,1.60
2016,12,09,13,35,1.60
2016,12,09,13,36,1.60
2016,12,09,13,37,1.60
2016,12,09,13,38,1.60
2016,12,09,13,39,1.60
2016,12,09,13,40,1.60
2016,12,09,13,41,1.60
2016,12,09,13,42,1.60
2016,12,09,13,43,1.60
2016,12,09,13,44,1.60
2016,12,09,13,45,1.60
2016,12,09,13,46,1.60
2016,12,09,13,47,1.70
2016,12,09,13,48,1.70
2016,12,09,13,49,1.70
2016,12,09,13,50,1.70
2016,12,09,13,51,1.70
2016,12,09,13,52,1.70
2016,12,09,13,53,1.70
2016,12,09,13,54,1.70
2016,12,09,13,55,1.80
2016,12,09,13,56,1.90
2016,12,09,13,57,2.00
2016,12,09,13,58,2.10
2016,12,09,13,59,2.20
2016,12,09,14,00,2.30
2016,12,09,14,01,2.40
2016,12,09,14,02,2.40
2016,12,09,14,03,2.50
2016,12,09,14,04,2.60
2016,12,09,14,05,2.60
2016,12,09,14,06,2.70
2016,12,09,14,07,2.70
2016,12,09,14,08,2.60
2016,12,09,14,09,2.50
2016,12,09,14,10,2.40
2016,12,09,14,11,2.40
2016,12,09,14,12,2.30
2016,12,09,14,13,2.30
2016,12,09,14,14,2.30
2016,12,09,14,15,2.40
2016,12,09,14,16,2.40
2016,12,09,14,17,2.50
2016,12,09,14,18,2.50
2016,12,09,14,19,2.60
2016,12,09,14,20,2.70
2016,12,09,14,21,2.70
2016,12,09,14,22,2.80
2016,12,09,14,23,2.90
2016,12,09,14,24,2.90
2016,12,09,14,25,3.00
2016,12,09,14,26,3.10
2016,12,09,14,27,3.10
2016,12,09,14,28,3.20
2016,12,09,14,29,3.20
2016,12,09,14,30,3.20
2016,12,09,14,31,3.20
2016,12,09,14,32,3.30
2016,12,09,14,33,3.30
2016,12,09,14,34,3.30
2016,12,09,14,35,3.30
2016,12,09,14,36,3.30
2016,12,09,14,37,3.30
2016,12,09,14,38,3.30
2016,12,09,14,39,3.30
2016,12,09,14,40,3.30
2016,12,09,14,41,3.30
2016,12,09,14,42,3.30
2016,12,09,14,43,3.30
2016,12,09,14,44,3.30
2016,12,09,14,45,3.30
2016,12,09,14,46,3.30
2016,12,09,14,47,3.30
2016,12,09,14,48,3.30
2016,12,09,14,49,3.30
2016,12,09,14,50,3.40
2016,12,09,14,51,3.40
2016,12,09,14,52,3.40
2016,12,09,14,53,3.40
2016,12,09,14,54,3.40
2016,12,09,14,55,3.40
2016,12,09,14,56,3.40
2016,12,09,14,57,3.40
2016,12,09,14,58,3.40
2016,12,09,14,59,3.40
2016,12,09,15,00,3.40
2016,12,09,15,01,3.40
2016,12,09,15,02,3.40
2016,12,09,15,03,3.40
2016,12,09,15,04,3.40
2016,12,09,15,05,3.40
2016,12,09,15,06,3.30
2016,12,09,15,07,3.30
2016,12,09,15,08,3.30
2016,12,09,15,09,3.30
2016,12,09,15,10,3.30
2016,12,09,15,11,3.30
2016,12,09,15,12,3.30
2016,12,09,15,13,3.30
2016,12,09,15,14,3.30
2016,12,09,15,15,3.30
2016,12,09,15,16,3.30
2016,12,09,15,17,3.30
2016,12,09,15,18,3.30
2016,12,09,15,19,3.30
2016,12,09,15,20,3.30
2016,12,09,15,21,3.30
2016,12,09,15,22,3.30
2016,12,09,15,23,3.30
2016,12,09,15,24,3.30
2016,12,09,15,25,3.30
2016,12,09,15,26,3.30
2016,12,09,15,27,3.30
2016,12,09,15,28,3.30
2016,12,09,15,29,3.30
2016,12,09,15,30,3.30
2016,12,09,15,31,3.30
2016,12,09,15,32,3.30
2016,12,09,15,33,3.30
2016,12,09,15,34,3.30
2016,12,09,15,35,3.30
2016,12,09,15,36,3.30
2016,12,09,15,37,3.30
2016,12,09,15,38,3.30
2016,12,09,15,39,3.30
2016,12,09,15,40,3.40
2016,12,09,15,41,3.40
2016,12,09,15,42,3.40
2016,12,09,15,43,3.40
2016,12,09,15,44,3.40
2016,12,09,15,45,3.40
2016,12,09,15,46,3.40
2016,12,09,15,47,3.40
2016,12,09,15,48,3.40
2016,12,09,15,49,3.40
2016,12,09,15,50,3.40
2016,12,09,15,51,3.40
2016,12,09,15,52,3.40
2016,12,09,15,53,3.40
2016,12,09,15,54,3.40
2016,12,09,15,55,3.30
2016,12,09,15,56,3.30
2016,12,09,15,57,3.30
2016,12,09,15,58,3.30
2016,12,09,15,59,3.40
2016,12,09,16,00,3.30
2016,12,09,16,01,3.30
2016,12,09,16,02,3.30
2016,12,09,16,03,3.30
2016,12,09,16,04,3.30
2016,12,09,16,05,3.30
2016,12,09,16,06,3.30
2016,12,09,16,07,3.30
2016,12,09,16,08,3.30
2016,12,09,16,09,3.30
2016,12,09,16,10,3.30
2016,12,09,16,11,3.30
2016,12,09,16,12,3.30
2016,12,09,16,13,3.30
2016,12,09,16,14,3.30
2016,12,09,16,15,3.30
2016,12,09,16,16,3.30
2016,12,09,16,17,3.30
2016,12,09,16,18,3.30
2016,12,09,16,19,3.30
2016,12,09,16,20,3.30
2016,12,09,16,21,3.40
2016,12,09,16,22,3.30
2016,12,09,16,23,3.40
2016,12,09,16,24,3.40
2016,12,09,16,25,3.40
2016,12,09,16,26,3.40
2016,12,09,16,27,3.30
2016,12,09,16,28,3.30
2016,12,09,16,29,3.30
2016,12,09,16,30,3.30
2016,12,09,16,31,3.30
2016,12,09,16,32,3.30
2016,12,09,16,33,3.30
2016,12,09,16,34,3.30
2016,12,09,16,35,3.30
2016,12,09,16,36,3.30
2016,12,09,16,37,3.30
2016,12,09,16,38,3.30
2016,12,09,16,39,3.30
2016,12,09,16,40,3.30
2016,12,09,16,41,3.40
2016,12,09,16,42,3.40
2016,12,09,16,43,3.40
2016,12,09,16,44,3.40
2016,12,09,16,45,3.40
2016,12,09,16,46,3.40
2016,12,09,16,47,3.40
2016,12,09,16,48,3.40
2016,12,09,16,49,3.40
2016,12,09,16,50,3.50
2016,12,09,16,51,3.50
2016,12,09,16,52,3.50
2016,12,09,16,53,3.50
2016,12,09,16,54,3.50
2016,12,09,16,55,3.50
2016,12,09,16,56,3.50
2016,12,09,16,57,3.50
2016,12,09,16,58,3.50
2016,12,09,16,59,3.60
2016,12,09,17,00,3.60
2016,12,09,17,01,3.60
2016,12,09,17,02,3.60
2016,12,09,17,03,3.60
2016,12,09,17,04,3.60
2016,12,09,17,05,3.60
2016,12,09,17,06,3.60
2016,12,09,17,07,3.60
2016,12,09,17,08,3.60
2016,12,09,17,09,3.60
2016,12,09,17,10,3.60
2016,12,09,17,11,3.60
2016,12,09,17,12,3.60
2016,12,09,17,13,3.60
2016,12,09,17,14,3.60
2016,12,09,17,15,3.60
2016,12,09,17,16,3.70
2016,12,09,17,17,3.70
2016,12,09,17,18,3.70
2016,12,09,17,19,3.70
2016,12,09,17,20,3.70
2016,12,09,17,21,3.70
2016,12,09,17,22,3.70
2016,12,09,17,23,3.70
2016,12,09,17,24,3.70
2016,12,09,17,25,3.70
2016,12,09,17,26,3.70
2016,12,09,17,27,3.70
2016,12,09,17,28,3.70
2016,12,09,17,29,3.70
2016,12,09,17,30,3.70
2016,12,09,17,31,3.70
2016,12,09,17,32,3.70
2016,12,09,17,33,3.70
2016,12,09,17,34,3.70
2016,12,09,17,35,3.70
2016,12,09,17,36,3.70
2016,12,09,17,37,3.70
2016,12,09,17,38,3.70
2016,12,09,17,39,3.70
2016,12,09,17,40,3.70
2016,12,09,17,41,3.70
2016,12,09,17,42,3.70
2016,12,09,17,43,3.80
2016,12,09,17,44,3.80
2016,12,09,17,45,3.80
2016,12,09,17,46,3.80
2016,12,09,17,47,3.80
2016,12,09,17,48,3.80
2016,12,09,17,49,3.80
2016,12,09,17,50,3.80
2016,12,09,17,51,3.80
2016,12,09,17,52,3.80
2016,12,09,17,53,3.80
2016,12,09,17,54,3.80
2016,12,09,17,55,3.80
2016,12,09,17,56,3.80
2016,12,09,17,57,3.80
2016,12,09,17,58,3.70
2016,12,09,17,59,3.70
2016,12,09,18,00,3.70
2016,12,09,18,01,3.70
2016,12,09,18,02,3.70
2016,12,09,18,03,3.70
2016,12,09,18,04,3.70
2016,12,09,18,05,3.70
2016,12,09,18,06,3.70
2016,12,09,18,07,3.70
2016,12,09,18,08,3.70
2016,12,09,18,09,3.70
2016,12,09,18,10,3.70
2016,12,09,18,11,3.70
2016,12,09,18,12,3.70
2016,12,09,18,13,3.60
2016,12,09,18,14,3.60
2016,12,09,18,15,3.60
2016,12,09,18,16,3.70
2016,12,09,18,17,3.60
2016,12,09,18,18,3.60
2016,12,09,18,19,3.60
2016,12,09,18,20,3.60
2016,12,09,18,21,3.60
2016,12,09,18,22,3.60
2016,12,09,18,23,3.60
2016,12,09,18,24,3.60
2016,12,09,18,25,3.60
2016,12,09,18,26,3.60
2016,12,09,18,27,3.60
2016,12,09,18,28,3.60
2016,12,09,18,29,3.60
2016,12,09,18,30,3.70
2016,12,09,18,31,3.70
2016,12,09,18,32,3.70
2016,12,09,18,33,3.70
2016,12,09,18,34,3.70
2016,12,09,18,35,3.70
2016,12,09,18,36,3.70
2016,12,09,18,37,3.70
2016,12,09,18,38,3.70
2016,12,09,18,39,3.70
2016,12,09,18,40,3.70
2016,12,09,18,41,3.70
2016,12,09,18,42,3.70
2016,12,09,18,43,3.70
2016,12,09,18,44,3.70
2016,12,09,18,45,3.70
2016,12,09,18,46,3.70
2016,12,09,18,47,3.70
2016,12,09,18,48,3.70
2016,12,09,18,49,3.70
2016,12,09,18,50,3.70
2016,12,09,18,51,3.80
2016,12,09,18,52,3.80
2016,12,09,18,53,3.80
2016,12,09,18,54,3.80
2016,12,09,18,55,3.80
2016,12,09,18,56,3.80
2016,12,09,18,57,3.80
2016,12,09,18,58,3.80
2016,12,09,18,59,3.90
2016,12,09,19,00,3.90
2016,12,09,19,01,3.90
2016,12,09,19,02,3.90
2016,12,09,19,03,3.90
2016,12,09,19,04,3.90
2016,12,09,19,05,3.90
2016,12,09,19,06,3.90
2016,12,09,19,07,3.90
2016,12,09,19,08,3.90
2016,12,09,19,09,3.90
2016,12,09,19,10,3.90
2016,12,09,19,11,3.90
2016,12,09,19,12,3.90
2016,12,09,19,13,3.90
2016,12,09,19,14,3.90
2016,12,09,19,15,3.90
2016,12,09,19,16,3.90
2016,12,09,19,17,3.90
2016,12,09,19,18,3.90
2016,12,09,19,19,3.90
2016,12,09,19,20,3.90
2016,12,09,19,21,3.90
2016,12,09,19,22,3.90
2016,12,09,19,23,3.90
2016,12,09,19,24,4.00
2016,12,09,19,25,4.00
2016,12,09,19,26,4.00
2016,12,09,19,27,4.00
2016,12,09,19,28,4.00
2016,12,09,19,29,4.00
2016,12,09,19,30,4.00
2016,12,09,19,31,4.00
2016,12,09,19,32,4.00
2016,12,09,19,33,4.00
2016,12,09,19,34,4.00
2016,12,09,19,35,4.00
2016,12,09,19,36,4.10
2016,12,09,19,37,4.10
2016,12,09,19,38,4.10
2016,12,09,19,39,4.10
2016,12,09,19,40,4.10
2016,12,09,19,41,4.10
2016,12,09,19,42,4.10
2016,12,09,19,43,4.10
2016,12,09,19,44,4.10
2016,12,09,19,45,4.10
2016,12,09,19,46,4.10
2016,12,09,19,47,4.00
2016,12,09,19,48,4.00
2016,12,09,19,49,4.00
2016,12,09,19,50,4.00
2016,12,09,19,51,4.00
2016,12,09,19,52,4.10
2016,12,09,19,53,4.10
2016,12,09,19,54,4.10
2016,12,09,19,55,4.10
2016,12,09,19,56,4.10
2016,12,09,19,57,4.00
2016,12,09,19,58,4.00
2016,12,09,19,59,4.00
2016,12,09,20,00,4.00
2016,12,09,20,01,4.00
2016,12,09,20,02,4.00
2016,12,09,20,03,4.00
2016,12,09,20,04,4.00
2016,12,09,20,05,3.90
2016,12,09,20,06,3.90
2016,12,09,20,07,3.90
2016,12,09,20,08,3.90
2016,12,09,20,09,3.90
2016,12,09,20,10,3.90
2016,12,09,20,11,3.90
2016,12,09,20,12,3.90
2016,12,09,20,13,3.90
2016,12,09,20,14,3.90
2016,12,09,20,15,3.90
2016,12,09,20,16,3.90
2016,12,09,20,17,3.90
2016,12,09,20,18,3.90
2016,12,09,20,19,3.90
2016,12,09,20,20,3.90
2016,12,09,20,21,3.90
2016,12,09,20,22,3.90
2016,12,09,20,23,3.90
2016,12,09,20,24,3.90
2016,12,09,20,25,3.90
2016,12,09,20,26,3.90
2016,12,09,20,27,3.90
2016,12,09,20,28,3.90
2016,12,09,20,29,3.90
2016,12,09,20,30,3.90
2016,12,09,20,31,3.90
2016,12,09,20,32,4.00
2016,12,09,20,33,4.00
2016,12,09,20,34,4.00
2016,12,09,20,35,4.00
2016,12,09,20,36,4.00
2016,12,09,20,37,4.00
2016,12,09,20,38,4.00
2016,12,09,20,39,4.00
2016,12,09,20,40,4.00
2016,12,09,20,41,4.00
2016,12,09,20,42,4.00
2016,12,09,20,43,3.90
2016,12,09,20,44,3.90
2016,12,09,20,45,3.90
2016,12,09,20,46,3.90
2016,12,09,20,47,3.90
2016,12,09,20,48,3.80
2016,12,09,20,49,3.80
2016,12,09,20,50,3.80
2016,12,09,20,51,3.80
2016,12,09,20,52,3.80
2016,12,09,20,53,3.80
2016,12,09,20,54,3.80
2016,12,09,20,55,3.70
2016,12,09,20,56,3.70
2016,12,09,20,57,3.70
2016,12,09,20,58,3.70
2016,12,09,20,59,3.70
2016,12,09,21,00,3.70
2016,12,09,21,01,3.70
2016,12,09,21,02,3.70
2016,12,09,21,03,3.70
2016,12,09,21,04,3.70
2016,12,09,21,05,3.70
2016,12,09,21,06,3.70
2016,12,09,21,07,3.60
2016,12,09,21,08,3.60
2016,12,09,21,09,3.60
2016,12,09,21,10,3.60
2016,12,09,21,11,3.60
2016,12,09,21,12,3.60
2016,12,09,21,13,3.60
2016,12,09,21,14,3.60
2016,12,09,21,15,3.50
2016,12,09,21,16,3.50
2016,12,09,21,17,3.50
2016,12,09,21,18,3.50
2016,12,09,21,19,3.50
2016,12,09,21,20,3.50
2016,12,09,21,21,3.40
2016,12,09,21,22,3.40
2016,12,09,21,23,3.40
2016,12,09,21,24,3.40
2016,12,09,21,25,3.40
2016,12,09,21,26,3.40
2016,12,09,21,27,3.40
2016,12,09,21,28,3.40
2016,12,09,21,29,3.30
2016,12,09,21,30,3.30
2016,12,09,21,31,3.30
2016,12,09,21,32,3.30
2016,12,09,21,33,3.20
2016,12,09,21,34,3.20
2016,12,09,21,35,3.10
2016,12,09,21,36,3.10
2016,12,09,21,37,3.00
2016,12,09,21,38,3.00
2016,12,09,21,39,2.90
2016,12,09,21,40,2.90
2016,12,09,21,41,2.80
2016,12,09,21,42,2.80
2016,12,09,21,43,2.70
2016,12,09,21,44,2.70
2016,12,09,21,45,2.70
2016,12,09,21,46,2.70
2016,12,09,21,47,2.60
2016,12,09,21,48,2.60
2016,12,09,21,49,2.60
2016,12,09,21,50,2.50
2016,12,09,21,51,2.50
2016,12,09,21,52,2.50
2016,12,09,21,53,2.40
2016,12,09,21,54,2.40
2016,12,09,21,55,2.40
2016,12,09,21,56,2.30
2016,12,09,21,57,2.30
2016,12,09,21,58,2.30
2016,12,09,21,59,2.30
2016,12,09,22,00,2.30
2016,12,09,22,01,2.20
2016,12,09,22,02,2.20
2016,12,09,22,03,2.20
2016,12,09,22,04,2.10
2016,12,09,22,05,2.10
2016,12,09,22,06,2.10
2016,12,09,22,07,2.00
2016,12,09,22,08,2.00
2016,12,09,22,09,2.00
2016,12,09,22,10,2.00
2016,12,09,22,11,1.90
2016,12,09,22,12,1.90
2016,12,09,22,13,1.90
2016,12,09,22,14,1.90
2016,12,09,22,15,1.90
2016,12,09,22,16,1.90
2016,12,09,22,17,1.90
2016,12,09,22,18,1.90
2016,12,09,22,19,1.90
2016,12,09,22,20,2.00
2016,12,09,22,21,2.00
2016,12,09,22,22,2.00
2016,12,09,22,23,2.00
2016,12,09,22,24,2.00
2016,12,09,22,25,1.90
2016,12,09,22,26,1.90
2016,12,09,22,27,1.90
2016,12,09,22,28,1.90
2016,12,09,22,29,1.90
2016,12,09,22,30,1.90
2016,12,09,22,31,1.90
2016,12,09,22,32,1.90
2016,12,09,22,33,1.90
2016,12,09,22,34,1.90
2016,12,09,22,35,1.90
2016,12,09,22,36,1.90
2016,12,09,22,37,1.90
2016,12,09,22,38,1.90
2016,12,09,22,39,1.90
2016,12,09,22,40,1.90
2016,12,09,22,41,1.90
2016,12,09,22,42,1.90
2016,12,09,22,43,1.90
2016,12,09,22,44,1.90
2016,12,09,22,45,1.90
2016,12,09,22,46,1.90
2016,12,09,22,47,1.80
2016,12,09,22,48,1.80
2016,12,09,22,49,1.80
2016,12,09,22,50,1.80
2016,12,09,22,51,1.80
2016,12,09,22,52,1.80
2016,12,09,22,53,1.80
2016,12,09,22,54,1.80
2016,12,09,22,55,1.80
2016,12,09,22,56,1.80
2016,12,09,22,57,1.80
2016,12,09,22,58,1.80
2016,12,09,22,59,1.80
2016,12,09,23,00,1.80
2016,12,09,23,01,1.80
2016,12,09,23,02,1.80
2016,12,09,23,03,1.80
2016,12,09,23,04,1.80
2016,12,09,23,05,1.80
2016,12,09,23,06,1.80
2016,12,09,23,07,1.80
2016,12,09,23,08,1.80
2016,12,09,23,09,1.80
2016,12,09,23,10,1.80
2016,12,09,23,11,1.80
2016,12,09,23,12,1.80
2016,12,09,23,13,1.80
2016,12,09,23,14,1.80
2016,12,09,23,15,1.80
2016,12,09,23,16,1.80
2016,12,09,23,17,1.80
2016,12,09,23,18,1.80
2016,12,09,23,19,1.80
2016,12,09,23,20,1.80
2016,12,09,23,21,1.90
2016,12,09,23,22,1.90
2016,12,09,23,23,1.90
2016,12,09,23,24,1.90
2016,12,09,23,25,1.90
2016,12,09,23,26,1.90
2016,12,09,23,27,1.90
2016,12,09,23,28,1.90
2016,12,09,23,29,1.90
2016,12,09,23,30,1.90
2016,12,09,23,31,1.80
2016,12,09,23,32,1.80
2016,12,09,23,33,1.80
2016,12,09,23,34,1.80
2016,12,09,23,35,1.80
2016,12,09,23,36,1.80
2016,12,09,23,37,1.70
2016,12,09,23,38,1.70
2016,12,09,23,39,1.70
2016,12,09,23,40,1.70
2016,12,09,23,41,1.70
2016,12,09,23,42,1.70
2016,12,09,23,43,1.70
2016,12,09,23,44,1.60
2016,12,09,23,45,1.60
2016,12,09,23,46,1.60
2016,12,09,23,47,1.60
2016,12,09,23,48,1.60
2016,12,09,23,49,1.60
2016,12,09,23,50,1.60
2016,12,09,23,51,1.60
2016,12,09,23,52,1.60
2016,12,09,23,53,1.60
2016,12,09,23,54,1.60
2016,12,09,23,55,1.60
2016,12,09,23,56,1.60
2016,12,09,23,57,1.60
2016,12,09,23,58,1.60
2016,12,09,23,59,1.60
